User: anonymous   Login
Location: Newark
(49.7697°N, 2.7094°E)
Time: 19:28:46
(UTC+00:00)
Language:

QB50P2 - Orbit

View from above orbital plane
View from above orbital plane
View from above satellite
View from above satellite

Ground track
Ground track

The orbit data is extracted from the following two-line orbital elements,

1 40032U 14033Y   20101.27977457  .00000251  00000-0  32966-4 0  9990
2 40032  97.9035  23.2200 0012319 154.0512 206.1325 14.88630816315369
Epoch (UTC): 10 April 2020 06:42:52
Eccentricity: 0.0012319
inclination: 97.9035°
perigee height: 593 km
apogee height: 611 km
right ascension of ascending node: 23.2200°
argument of perigee: 154.0512°
revolutions per day: 14.88630816
mean anomaly at epoch: 206.1325°
orbit number at epoch: 31536

The dashed part of the orbit path shows where the satellite is in the earth's shadow,  

DLR